Weather in Talon

Russia / Magadan District     59°45′46″N   148°39′19″E
temp.,
°C
wind,
m/s
gust,
m/s
humid.,
%
clouds,
%
prec.,
mm/h
press.,
hPa
HPBL,
m
16 august, tue
tue1623:00+12wnw2282100 0.0 100212
02:00+13nw2292100 1.6 100021
05:00+12nw3497100 4.1 99989
08:00+12nw3797100 3.6 998218
11:00+12wnw3695100 5.7 997245
14:00+12wnw3495100 0.9 996184
17:00+12wnw3594100 1.0 996193
20:00+12wnw2293100 0.0 99643
17 august, wed
wed1723:00+12wnw2291100 0.0 99621
02:00+12nw2287100 0.0 99612
05:00+12wnw2285100 0.1 99613
08:00+12wnw2283100 0.0 99614
11:00+13nw1181100 0.0 99645
14:00+14w117699 0.0 996130
17:00+15ese1175100 0.0 996144
20:00+13se128197 0.0 99710
18 august, thu
thu1823:00+12se1183100 0.0 99810
02:00+8ese118866 0.0 99910
05:00+8se228839 0.0 99910
08:00+13ese128290 0.0 1001139
11:00+16se447399 0.0 1001654
14:00+17se6569100 0.1 1002879
17:00+15se6674100 0.1 1004637
20:00+11ese3592100 0.0 1005184
19 august, fri
fri1923:00+11ese4798100 0.1 1006369
02:00+10ese61298100 1.8 1006606
05:00+10se91695100 2.6 1005828
08:00+10ese111998100 9.0 1002899
11:00+10se111696100 19.9 1003880
14:00+10se101698100 3.3 1004888
17:00+10ese71297100 4.1 1004790
20:00+11se51098100 0.1 1006665
20 august, sat
sat2023:00+10se3897100 0.1 1007534
02:00+10ese2597100 0.0 1008243
05:00+10ese1298100 0.1 100862
08:00+10ese2597100 0.6 1007263
11:00+11ese61198100 1.6 1007763
14:00+12ese71297100 0.1 1007687
17:00+12se71197100 0.1 1007626
20:00+11se599798 0.0 1008432